Hourly Data Report for October 24, 2016

All times are specified in Local Standard Time (LST). Add 1 hour to adjust for Daylight Saving Time where and when it is observed.

GRISE FIORD CLIMATE
NUNAVUT

76°25'22.040" N
82°54'08.020" W
44.50 m
2402351
71971
NGC

Download Data

Hourly Data (October 2016)
Hourly Data Report for October 24, 2016
Temp Definition
°C
Dew Point Temp Definition
°C
Rel Hum Definition
%
Wind Dir Definition
10's deg

Wind Spd Definition
km/h
Visibility Definition
km
Stn Press Definition
kPa
Hmdx Definition


Wind Chill Definition


Weather Definition


TIME
00:00 -10.8 -13.9 78 4 13   102.38   -17 LegendNANA
01:00 -11.9 -14.3 82 5 7   102.35   -16 LegendNANA
02:00 -12.2 -14.2 85   0   102.33     LegendNANA
03:00 -12.9 -15.3 83 5 3   102.30   -15 LegendNANA
04:00 -12.3 -15.3 78 1 7   102.28   -17 LegendNANA
05:00 -12.7 -15.0 83 29 6   102.24   -17 LegendNANA
06:00 -11.0 -14.1 78 33 6   102.21   -15 LegendNANA
07:00 -13.4 -15.6 83 0 1   102.15   -14 LegendNANA
08:00 -11.3 -14.1 80 11 3   102.11   -13 LegendNANA
09:00 -10.8 -13.6 80 5 4   102.07   -13 LegendNANA
10:00 -10.4 -13.4 79 7 1   102.03   -11 LegendNANA
11:00 -11.1 -12.6 88 7 3   101.99   -13 LegendNANA
12:00 -9.4 -11.5 84 4 4   101.95   -12 LegendNANA
13:00 -10.7 -12.5 86 36 1   101.91   -11 LegendNANA
14:00 -12.6 -14.0 89 9 3   101.90   -15 LegendNANA
15:00 -12.0 -14.0 85 28 8   101.92   -17 LegendNANA
16:00 -11.9 -13.7 86 13 3   101.90   -14 LegendNANA
17:00 -12.1 -14.0 86 20 3   101.87   -14 LegendNANA
18:00 -11.3 -12.8 89 15 7   101.83   -16 LegendNANA
19:00 -12.0 -13.3 90 28 2   101.80   -13 LegendNANA
20:00 -11.7 -13.1 90 21 2   101.73   -13 LegendNANA
21:00 -11.6 -13.8 83 25 2   101.68   -13 LegendNANA
22:00 -11.9 -14.9 78 35 4   101.62   -14 LegendNANA
23:00 -13.4 -15.8 82 36 6   101.56   -17 LegendNANA

Notes on Data Quality.

Legend

  • E = Estimated
  • M = Missing
  • NA = Not Available
  • ‡ = Partner data that is not subject to review by the National Climate Archives
Date modified: